Location: Sandbach
(53.1410°N, 2.3660°W)
Time: 14:49:35
(UTC+00:00)

ISS - Visible Passes

Search period start: 04 December 2021 00:00
Search period end: 14 December 2021 00:00
Orbit: 417 x 423 km, 51.6° (Epoch: 04 December)

Date Brightness Start Highest point End Pass type
(mag) Time Alt. Az. Time Alt. Az. Time Alt. Az.
04 Dec -3.1 16:57:28 10° W 17:00:48 55° SSW 17:04:07 10° ESE visible
04 Dec -1.5 18:34:34 10° W 18:37:10 20° SSW 18:37:58 19° SSW visible
05 Dec -1.8 17:46:58 10° W 17:49:54 27° SSW 17:52:49 10° SSE visible
06 Dec -2.1 16:59:25 10° W 17:02:34 35° SSW 17:05:41 10° SE visible
06 Dec -0.5 18:38:08 10° SW 18:38:38 10° SW 18:39:08 10° SSW visible
07 Dec -0.7 17:49:23 10° WSW 17:51:22 15° SW 17:53:21 10° S visible
08 Dec -0.9 17:01:27 10° W 17:04:02 20° SSW 17:06:36 10° SSE visible
10 Dec 0.1 17:04:43 10° SW 17:05:11 10° SW 17:05:38 10° SW visible
